Location: Black Creek
(40.9000°S, 175.5500°E)
Time: 18:38:26
(UTC+00:00)

SMAP - Pass Details

Date: 04 August 2024
Orbit: 681 x 683 km, 98.1° (Epoch: 18 September)

Event Time Altitude Azimuth Distance (km) Brightness Sun altitude
Rises 17:55:49 0° 7° (N) 3,035 6.6 -16.2°
Reaches altitude 10° 17:58:03 10° 3° (N) 2,128 5.8 -15.8°
Maximum altitude 18:02:41 64° 281° (WNW) 765 3.0 -14.9°
Drops below altitude 10° 18:07:22 10° 199° (SSW) 2,158 5.3 -14.1°
Sets 18:09:40 0° 196° (SSW) 3,081 6.2 -13.6°
